Location: Banff
(51.1667°N, 115.5667°W)
Time: 15:24:32
(UTC+00:00)

Altair - Pass Details

Date: 28 November 2020
Orbit: 1501 x 1682 km, 47.2° (Epoch: 15 January)

Event Time Altitude Azimuth Distance (km) Brightness Sun altitude
Exits shadow 11:23:28 15° 178° (S) 3,322 9.1 -36.3°
Drops below altitude 10° 11:25:03 10° 171° (S) 3,701 9.5 -36.0°
Sets 11:28:43 0° 160° (SSE) 4,705 10.2 -35.5°
